Location: Unspecified
(50.7693°N, 0.0000°E)
Time: 02:08:12
(UTC+00:00)

Vanguard 1 - Pass Details

Date: 22 June 2019
Orbit: 653 x 3830 km, 34.3° (Epoch: 22 July)

Event Time Altitude Azimuth Distance (km) Brightness Sun altitude
Exits shadow 23:19:56 11° 144° (SE) 6,245 13.6 -15.2°
Maximum altitude 23:21:36 11° 139° (SE) 6,123 13.6 -15.3°
Drops below altitude 10° 23:25:10 10° 128° (SE) 5,936 13.6 -15.4°
Sets 23:34:38 0° 98° (E) 6,085 14.0 -15.5°
